Regional Weather Roundup
Issued by NWS Little Rock, AR

Home | Current Version | Previous Version | Graphics & Text | Print | Product List | Glossary On
Versions: 1 2 3 4 5 6 7 8 9 10 11 12 13 14 15 16 17 18 19 20 21 22 23 24 25 26 27 28 29 30 31 32 33 34 35 36 37 38 39 40 41 42 43 44 45 46 47 48 49 50
000
ASUS44 KLZK 220605
RWRLZK

WEATHER ROUNDUP FOR ARKANSAS
NATIONAL WEATHER SERVICE LITTLE ROCK AR
100 AM CDT TUE JUL 22 2014

NOTE: "FAIR" INDICATES FEW OR NO CLOUDS BELOW 12,000 FEET WITH NO
SIGNIFICANT WEATHER AND/OR OBSTRUCTIONS TO VISIBILITY.

ARZ001-003-010-029-220700-
NORTHWEST ARKANSAS

CITY           SKY/WX    TMP DP  RH WIND       PRES   REMARKS
FAYETTEVILLE   CLEAR     68  67  96 CALM      30.09F
6HR MIN TEMP:  68; 6HR MAX TEMP:  85;

FORT SMITH     CLEAR     74  70  87 E5        30.06R
6HR MIN TEMP:  74; 6HR MAX TEMP:  88;

HARRISON       CLEAR     69  68  96 S3        30.11S
6HR MIN TEMP:  69; 6HR MAX TEMP:  84;

BENTONVILLE    CLEAR     73  66  78 S3        30.10S
6HR MIN TEMP:  72; 6HR MAX TEMP:  88;

ROGERS         CLEAR     73  68  84 S5        30.11R
6HR MIN TEMP:  73; 6HR MAX TEMP:  87;

SILOAM SPGS    CLEAR     72  63  73 S5        30.10S
6HR MIN TEMP:  72; 6HR MAX TEMP:  86;

HIGHFILL       CLEAR     71  68  90 S3        30.09S
6HR MIN TEMP:  71; 6HR MAX TEMP:  86;

$$

ARZ004-005-016-220700-
NORTH CENTRAL ARKANSAS

CITY           SKY/WX    TMP DP  RH WIND       PRES   REMARKS
BATESVILLE     CLEAR     66  64  94 CALM      30.08R
6HR MIN TEMP:  66; 6HR MAX TEMP:  84;

FLIPPIN        CLEAR     68  63  83 CALM      30.09S
6HR MIN TEMP:  68; 6HR MAX TEMP:  82;

MTN HOME       CLEAR     70  67  90 S5        30.09R
6HR MIN TEMP:  69; 6HR MAX TEMP:  82;

$$

ARZ040-041-220700-
WEST CENTRAL ARKANSAS

CITY           SKY/WX    TMP DP  RH WIND       PRES   REMARKS
MENA           PTCLDY    70  70 100 CALM      30.11R
MOUNT IDA      CLEAR     68  66  93 CALM      30.07S FOG
6HR MIN TEMP:  68; 6HR MAX TEMP:  83;

$$

ARZ009-017-025-026-028-220700-
NORTHEAST ARKANSAS

CITY           SKY/WX    TMP DP  RH WIND       PRES   REMARKS
CORNING        FAIR      68  68 100 NW5       30.07S FOG
JONESBORO      CLEAR     67  64  90 CALM      30.06S
6HR MIN TEMP:  66; 6HR MAX TEMP:  83;

NEWPORT        CLEAR     71  68  90 CALM      30.08R
6HR MIN TEMP:  71; 6HR MAX TEMP:  84;

WALNUT RIDGE   CLEAR     70  46  43 NW5       30.06S
6HR MIN TEMP:  70; 6HR MAX TEMP:  82;

BLYTHEVILLE    CLEAR     71  67  87 CALM      30.06S
6HR MIN TEMP:  71; 6HR MAX TEMP:  84;

$$

ARZ022-023-033-042-044-220700-
CENTRAL ARKANSAS

CITY           SKY/WX    TMP DP  RH WIND       PRES   REMARKS
LITTLE ROCK    CLEAR     72  67  84 CALM      30.07R
6HR MIN TEMP:  72; 6HR MAX TEMP:  84;

N LITTLE ROCK    N/A     71  69  94 W5        30.07R
6HR MIN TEMP:  71; 6HR MAX TEMP:  82;

JACKSONVILLE   CLEAR     71  68  92 CALM      30.07R
6HR MIN TEMP:  69; 6HR MAX TEMP:  85; 6HR PCP: TRACE;

SEARCY         CLEAR     69  68  97 W3        30.08R FOG
6HR MIN TEMP:  68; 6HR MAX TEMP:  85;

HOT SPRINGS    CLEAR     70  67  90 CALM      30.08S
6HR MIN TEMP:  70; 6HR MAX TEMP:  85;

RUSSELLVILLE   CLEAR     70  67  90 CALM      30.07S FOG
6HR MIN TEMP:  70; 6HR MAX TEMP:  85;

CLINTON        FAIR      68  68 100 CALM      30.10R FOG
$$

ARZ036-220700-
EAST ARKANSAS

CITY           SKY/WX    TMP DP  RH WIND       PRES   REMARKS
WEST MEMPHIS   CLEAR     70  70 100 CALM      30.04S
6HR MIN TEMP:  69; 6HR MAX TEMP:  83;

$$

ARZ050-053-066-070-073-220700-
SOUTHWEST ARKANSAS

CITY           SKY/WX    TMP DP  RH WIND       PRES   REMARKS
ARKADELPHIA    FAIR      71  70  97 CALM      30.08R
6HR MIN TEMP:  71; 6HR MAX TEMP:  85;

CAMDEN         FOG       68  66  94 CALM      30.06R VSB 3/4
TEXARKANA      CLEAR     70  69  97 CALM      30.06R
6HR MIN TEMP:  70; 6HR MAX TEMP:  84;

EL DORADO      CLEAR     69  68  96 NW5       30.06R
6HR MIN TEMP:  69; 6HR MAX TEMP:  85;

DE QUEEN       CLEAR     69  69 100 CALM      30.06R FOG
6HR MIN TEMP:  69; 6HR MAX TEMP:  82;

$$

ARZ056-057-069-220700-
SOUTHEAST ARKANSAS

CITY           SKY/WX    TMP DP  RH WIND       PRES   REMARKS
PINE BLUFF     CLEAR     70  68  93 W3        30.06R
6HR MIN TEMP:  70; 6HR MAX TEMP:  82;

STUTTGART      CLEAR     73  68  83 CALM      30.07R
6HR MIN TEMP:  72; 6HR MAX TEMP:  82;

MONTICELLO     CLEAR     70  67  90 CALM      30.05R
6HR MIN TEMP:  70; 6HR MAX TEMP:  84;


$$




USA.gov is the U.S. government's official web portal to all federal, state and local government web resources and services.